Location: Newark
(40.3820°N, 3.6624°W)
Time: 15:09:41
(UTC+00:00)

Envisat - Visible Passes

Search period start: 22 November 2019 00:00
Search period end: 02 December 2019 00:00
Orbit: 764 x 766 km, 98.1° (Epoch: 22 November)

Date Brightness Start Highest point End Pass type
(mag) Time Alt. Az. Time Alt. Az. Time Alt. Az.
22 Nov 6.0 05:53:11 10° NE 05:56:13 16° E 05:59:14 10° SE visible
22 Nov 4.0 18:44:44 10° S 18:49:35 46° W 18:54:30 10° NNW visible
23 Nov 2.9 18:07:44 10° SSE 18:12:47 78° ENE 18:17:53 10° N visible
23 Nov 6.2 19:50:45 10° WSW 19:52:22 11° W 19:53:59 10° WNW visible
24 Nov 5.4 06:17:36 10° NE 06:21:57 28° E 06:26:15 10° SSE visible
24 Nov 3.6 17:31:36 10° SE 17:36:11 35° ENE 17:40:46 10° N visible
24 Nov 5.1 19:11:00 10° SSW 19:15:14 26° W 19:19:29 10° NW visible
25 Nov 6.3 05:42:50 10° ENE 05:44:49 12° E 05:46:47 10° ESE visible
25 Nov 3.5 18:33:17 10° S 18:38:17 60° W 18:43:19 10° NNW visible
26 Nov 3.0 17:56:33 10° SSE 18:01:32 62° ENE 18:06:33 10° N visible
26 Nov 5.9 19:38:08 10° SW 19:40:58 15° W 19:43:49 10° NW visible
27 Nov 5.7 06:06:40 10° NE 06:10:35 22° E 06:14:28 10° SE visible
27 Nov 3.8 17:20:43 10° SE 17:25:00 28° ENE 17:29:17 10° N visible
27 Nov 4.7 18:59:19 10° SSW 19:03:53 33° W 19:08:28 10° NNW visible
28 Nov 3.1 18:21:56 10° S 18:27:00 76° WSW 18:32:06 10° NNW visible
29 Nov 4.7 06:31:30 10° NNE 06:36:15 38° E 06:40:58 10° SSE visible
29 Nov 3.2 17:45:27 10° SE 17:50:19 48° ENE 17:55:12 10° N visible
29 Nov 5.6 19:26:01 10° SW 19:29:35 19° W 19:33:09 10° NW visible
30 Nov 6.0 05:55:53 10° NE 05:59:12 17° E 06:02:31 10° SE visible
30 Nov 4.1 17:09:56 10° ESE 17:13:49 23° ENE 17:17:44 10° NNE visible
30 Nov 4.2 18:47:45 10° S 18:52:33 42° W 18:57:23 10° NNW visible
01 Dec 2.9 18:10:39 10° SSE 18:15:43 85° ENE 18:20:50 10° NNW visible
01 Dec 6.3 19:54:50 10° W 19:55:22 10° W 19:55:54 10° W visible
